Sarakhs

Iran     36˚32′38″N   61˚09′41″E
temp.,
°C
wind,
m/s
gust,
m/s
humid.,
%
clouds,
%
prec.,
mm/h
press.,
hPa
HPBL,
m
2 december, wed
wed223:00+6˚ne22561 0.0 102622
02:00+5˚nne125634 0.0 102622
05:00+3˚nne116041 0.0 102622
08:00+3˚nne115470 0.0 102822
11:00+9˚nne113581 0.0 1028351
14:00+12˚nne12320 0.0 1026743
17:00+12˚ne22320 0.0 102577
20:00+8˚ene23430 0.0 102823
3 december, thu
thu323:00+7˚nne234928 0.0 102822
02:00+5˚ne115491 0.0 102822
05:00+5˚nne125095 0.0 102722
08:00+5˚nne2349100 0.0 102822
11:00+8˚n1241100 0.0 1029266
14:00+8˚n2246100 0.0 1027395
17:00+9˚ne224694 0.0 1027325
20:00+8˚n1148100 0.0 103027
4 december, fri
fri423:00+6˚n2374100 0.4 1030221
02:00+6˚wnw1277100 0.3 1030371
05:00+6˚nnw2381100 0.4 1030407
08:00+6˚nnw3472100 0.1 1032454
11:00+7˚nnw333798 0.1 1033607
14:00+9˚nnw333327 0.0 10311030
17:00+9˚n323514 0.0 10301010
20:00+6˚ne33430 0.0 103144
5 december, sat
sat523:00+4˚ne23440 0.0 103122
02:00+3˚ne12450 0.0 103022
05:00+2˚ene22420 0.0 102922
08:00+1˚ene22440 0.0 102922
11:00+6˚nne11310 0.0 1029376
14:00+9˚ne22290 0.0 1026799
17:00+9˚ne34300 0.0 1026559
20:00+6˚ne34350 0.0 102738
6 december, sun
sun623:00+4˚ne23368 0.0 102726
02:00+3˚ene22394 0.0 102722
05:00+1˚e114834 0.0 102622
08:00+1˚ese115599 0.0 102622
11:00+7˚ne114095 0.0 1026287
14:00+10˚ne2237100 0.0 1023824
17:00+10˚nne3437100 0.0 1023749
20:00+6˚n4553100 0.6 1025849